Location: Allentsteig
(48.6833°N, 15.3167°E)
Time: 18:20:27
(UTC+00:00)

Cosmos 1634 Rocket - Visible Passes

Search period start: 16 January 2021 00:00
Search period end: 26 January 2021 00:00
Orbit: 959 x 993 km, 82.9° (Epoch: 15 January)

Date Brightness Start Highest point End Pass type
(mag) Time Alt. Az. Time Alt. Az. Time Alt. Az.
16 Jan 7.0 03:57:29 10° E 03:59:01 11° ENE 04:00:34 10° ENE visible
16 Jan 4.5 05:37:04 10° S 05:43:08 66° E 05:49:16 10° NNE visible
16 Jan 4.0 16:28:34 10° N 16:34:47 66° ENE 16:41:00 10° SSE visible
16 Jan 6.2 18:14:53 10° NNW 18:19:37 24° W 18:24:24 10° SW visible
17 Jan 6.5 04:19:43 10° SE 04:23:58 20° E 04:28:15 10° NE visible
17 Jan 4.0 06:02:30 10° SSW 06:08:40 75° W 06:14:52 10° N visible
17 Jan 4.2 16:54:07 10° NNW 17:00:21 76° W 17:06:36 10° S visible
17 Jan 6.9 18:41:48 10° NW 18:44:39 13° WNW 18:47:29 10° WSW visible
18 Jan 5.7 04:43:42 10° SSE 04:49:07 34° E 04:54:34 10° NNE visible
18 Jan 5.2 17:19:52 10° NNW 17:25:44 45° W 17:31:38 10° SSW visible
19 Jan 4.7 05:08:25 10° S 05:14:25 57° E 05:20:27 10° NNE visible
19 Jan 6.1 17:45:54 10° NNW 17:50:58 27° W 17:56:04 10° SW visible
20 Jan 6.7 03:51:31 10° ESE 03:55:20 17° ENE 03:59:10 10° NE visible
20 Jan 4.0 05:33:43 10° S 05:39:53 85° W 05:46:06 10° N visible
20 Jan 4.1 16:25:19 10° N 16:31:36 86° W 16:37:53 10° S visible
20 Jan 6.8 18:12:32 10° NW 18:16:02 16° WNW 18:19:33 10° WSW visible
21 Jan 5.9 04:15:14 10° SE 04:20:25 30° E 04:25:39 10° NNE visible
21 Jan 4.1 05:59:33 10° SSW 06:05:31 51° WNW 06:11:33 10° N visible
21 Jan 5.0 16:51:01 10° NNW 16:57:02 52° W 17:03:04 10° SSW visible
22 Jan 4.9 04:39:47 10° SSE 04:45:41 50° E 04:51:37 10° NNE visible
22 Jan 6.0 17:16:58 10° NNW 17:22:18 31° W 17:27:40 10° SW visible
23 Jan 6.8 03:23:25 10° ESE 03:26:42 15° ENE 03:30:00 10° NE visible
23 Jan 4.0 05:04:57 10° S 05:11:07 85° E 05:17:20 10° N visible
23 Jan 6.7 17:43:23 10° NW 17:47:24 18° W 17:51:27 10° WSW visible
24 Jan 6.0 03:46:49 10° SE 03:51:45 26° E 03:56:43 10° NNE visible
24 Jan 4.0 05:30:39 10° SSW 05:36:42 58° WNW 05:42:49 10° N visible
24 Jan 4.8 16:22:10 10° NNW 16:28:18 59° W 16:34:28 10° S visible
25 Jan 5.1 04:11:12 10° SSE 04:16:58 44° E 04:22:47 10° NNE visible
25 Jan 4.5 05:56:55 10° SW 06:02:29 35° WNW 06:08:07 10° N visible
25 Jan 5.8 16:48:03 10° NNW 16:53:37 35° W 16:59:13 10° SSW visible
